Simultaneous Nadir Overpasses (SNOs) Predictions

Prediction of SNOs between LANDSAT-8 and METOP-B Satellite Orbit:

Table of predicted SNOs for the next 14.0 days since TLE Epoch: 10/25/2015
Index Date (LANDSAT-8) Time (LANDSAT-8) Lat,Lon (LANDSAT-8) SZA (LANDSAT-8 ) Date (METOP-B) Time (METOP-B) Lat,Lon (METOP-B) SZA (METOP-B ) Distance(km) Time Diff (sec)
1 10/26/2015 08:20:56 81.13, 94.91 95.91 10/26/2015 08:20:01 81.14, 94.74 95.87 2.97 55
2 10/26/2015 09:10:21 -81.18, -96.78 83.98 10/26/2015 09:10:39 -81.17, -96.96 84.00 3.24 18
3 10/29/2015 03:55:11 81.16, 161.68 96.92 10/29/2015 03:54:20 81.16, 161.81 96.91 2.21 51
4 10/29/2015 04:44:37 -81.18, -30.36 83.03 10/29/2015 04:44:59 -81.18, -30.25 83.01 1.93 22
5 10/31/2015 23:29:26 81.15,-132.04 97.81 10/31/2015 23:28:40 81.15,-131.93 97.81 2.02 46
6 11/01/2015 00:18:52 -81.17, 35.95 82.13 11/01/2015 00:19:19 -81.17, 36.04 82.10 1.80 27
7 11/03/2015 19:03:41 81.15, -65.50 98.72 11/03/2015 19:03:00 81.16, -65.33 98.72 3.02 41
8 11/03/2015 19:53:07 -81.18, 102.50 81.22 11/03/2015 19:53:39 -81.18, 102.67 81.19 2.91 32
9 11/06/2015 14:37:56 81.15, 0.91 99.57 11/06/2015 14:37:21 81.15, 0.83 99.54 1.35 35




NCC Satellite Simultaneous Nadir Overpasses (SNOs) Prediction Service
